Guayaquil, Ecuador

7:31 PM -05 on December 13, 2017 (GMT -0500)
Jose Joaquin de Olmedo

Weather History for SEGU - December, 2017

Change the Weather History Date:

Thursday, December 7, 2017

  Actual Average Record
Temperature  
Mean Temperature 84 °F -  
Max Temperature 92 °F 84 °F 93 °F (2004)
Min Temperature 75 °F 70 °F 69 °F (1996)
Cooling Degree Days 18    
Growing Degree Days 34 (Base 50)    
Moisture  
Dew Point 68 °F    
Average Humidity 62    
Maximum Humidity 78    
Minimum Humidity 40    
Precipitation  
Precipitation 0.00 in 0.10 in - ()
Sea Level Pressure  
Sea Level Pressure 29.80 in    
Wind  
Wind Speed 7 mph ()    
Max Wind Speed 15 mph    
Max Gust Speed -    
Visibility 6.2 miles    
Events      
Averages and records for this station are not official NWS values.
T = Trace of Precipitation, MM = Missing Value Source: Averaged Metar Reports

Daily Weather History Graph

Daily Weather History Graph

Search for Another Location

Airport or City:

Trip Planner

Search our weather history database for the weather conditions in past years. The results will help you decide how hot, cold, wet, or windy it might be!

Date:

Astronomy

Dec. 07, 2017 Rise Set
Actual Time 6:03 AM -05 6:18 PM -05
Civil Twilight 5:41 AM -05 6:40 PM -05
Nautical Twilight 5:15 AM -05 7:07 PM -05
Astronomical Twilight 4:48 AM -05 7:33 PM -05
Moon 10:37 PM -05 (12/7) 10:02 AM -05 (12/7)
Length of Visible Light 12h 59m
Length of Day
12h 14m
Waning Gibbous, 78% of the Moon is Illuminated
Dec 7
Waning Gibbous
Dec 10
Last Quarter
Dec 18
New
Dec 26
First Quarter
Jan 1
Full

Hourly Weather History & Observations

Time (-05) Temp. Heat Index Dew Point Humidity Pressure Visibility Wind Dir Wind Speed Gust Speed Precip Events Conditions
12:00 AM 77.0 °F - 68.0 °F 74% 29.83 in 6.2 mi SW 12.7 mph - N/A   Mostly Cloudy
1:00 AM 77.0 °F - 68.0 °F 74% 29.83 in 6.2 mi WSW 9.2 mph - N/A   Mostly Cloudy
2:00 AM 77.0 °F - 68.0 °F 74% 29.80 in 6.2 mi SW 6.9 mph - N/A   Mostly Cloudy
3:00 AM 77.0 °F - 68.0 °F 74% 29.80 in 6.2 mi SSW 6.9 mph - N/A   Mostly Cloudy
4:00 AM 77.0 °F - 68.0 °F 74% 29.80 in 6.2 mi SSW 8.1 mph - N/A   Mostly Cloudy
5:00 AM 75.2 °F - 68.0 °F 78% 29.83 in 6.2 mi SSW 4.6 mph - N/A   Mostly Cloudy
6:00 AM 77.0 °F - 68.0 °F 74% 29.83 in 6.2 mi Variable 2.3 mph - N/A   Mostly Cloudy
7:00 AM 77 °F - 68 °F 67% 29.86 in 6 mi 2.3 mph - -   Haze
7:00 AM 77.0 °F - 68.0 °F 74% 29.86 in 6.2 mi Variable 2.3 mph - N/A   Mostly Cloudy
8:00 AM 78.8 °F - 69.8 °F 74% 29.86 in 6.2 mi Variable 2.3 mph - N/A   Mostly Cloudy
9:00 AM 80.6 °F 83.2 °F 68.0 °F 65% 29.86 in 6.2 mi NE 4.6 mph - N/A   Mostly Cloudy
10:00 AM 84.2 °F 88.4 °F 69.8 °F 62% 29.86 in 6.2 mi NE 4.6 mph - N/A   Scattered Clouds
11:00 AM 86.0 °F 89.4 °F 68.0 °F 55% 29.83 in 6.2 mi East 4.6 mph - N/A   Partly Cloudy
12:00 PM 87.8 °F 91.4 °F 68.0 °F 52% 29.80 in 6.2 mi East 3.5 mph - N/A   Partly Cloudy
1:00 PM 89 °F - 68 °F 40% 29.79 in 6 mi East 5.8 mph - -   Haze
1:00 PM 89.6 °F 93.4 °F 68.0 °F 49% 29.77 in 6.2 mi East 5.8 mph - N/A   Partly Cloudy
2:00 PM 89.6 °F 93.4 °F 68.0 °F 49% 29.74 in 6.2 mi SE 4.6 mph - N/A   Partly Cloudy
3:00 PM 91.4 °F 96.8 °F 69.8 °F 49% 29.71 in 6.2 mi ESE 5.8 mph - N/A   Partly Cloudy
4:00 PM 90 °F - 69 °F 41% 29.72 in 6 mi South 8.1 mph - -   Haze
4:00 PM 89.6 °F 94.7 °F 69.8 °F 52% 29.71 in 6.2 mi South 8.1 mph - N/A   Mostly Cloudy
5:00 PM 89.6 °F 94.7 °F 69.8 °F 52% 29.71 in 6.2 mi SSE 6.9 mph - N/A   Mostly Cloudy
6:00 PM 87.8 °F 91.4 °F 68.0 °F 52% 29.74 in 6.2 mi SW 12.7 mph - N/A   Mostly Cloudy
7:00 PM 83 °F - 69 °F 54% 29.78 in 6 mi SSW 15.0 mph - -   Haze
7:00 PM 86.0 °F 89.4 °F 68.0 °F 55% 29.77 in 6.2 mi SW 12.7 mph - N/A   Mostly Cloudy
8:00 PM 82.4 °F 85.4 °F 68.0 °F 62% 29.80 in 6.2 mi SW 11.5 mph - N/A   Mostly Cloudy
9:00 PM 80.6 °F 83.2 °F 68.0 °F 65% 29.83 in 6.2 mi SW 15.0 mph - N/A   Mostly Cloudy
10:00 PM 78.8 °F - 68.0 °F 69% 29.86 in 6.2 mi SW 12.7 mph - N/A   Mostly Cloudy
11:00 PM 77.0 °F - 68.0 °F 74% 29.86 in 6.2 mi SW 12.7 mph - N/A   Mostly Cloudy